Location: Puerto Pe�asco
(31.3170°N, 113.5330°W)
Time: 21:58:52
(UTC-07:00)

Daily predictions for brighter satellites

Satellite Brightness Start Highest point End
(mag) Time Altitude Azimuth Time Altitude Azimuth Time Altitude Azimuth
USA 229 DEB 4.0 18:19:13 10° S 18:25:44 49° ESE 18:32:19 10° NE
USA 229 4.0 18:19:19 10° S 18:25:50 49° ESE 18:32:25 10° NE
MONITOR-E 4.4 18:23:22 10° SSE 18:26:26 50° ENE 18:29:31 10° N
Cosmos 1125 Rocket 3.7 18:21:50 10° NNW 18:27:02 78° WSW 18:32:12 10° S
OTV 4 1.6 18:24:36 10° WNW 18:27:27 44° SSW 18:30:18 10° SE
Cosmos 2151 3.8 18:24:00 10° SSW 18:28:06 55° W 18:32:14 10° N
YAOGAN 1 2.9 18:24:47 10° S 18:29:05 72° WSW 18:33:25 10° NNW
Cosmos 1634 Rocket 4.3 18:23:55 10° N 18:30:04 73° W 18:36:11 10° S
Cosmos 1300 3.2 18:29:38 10° NNW 18:33:26 66° W 18:37:14 10° S
Cosmos 1707 Rocket 4.3 18:29:45 10° NNE 18:33:36 31° E 18:37:27 10° SE
Cosmos 2237 Rocket 3.9 18:30:55 10° SW 18:35:52 31° WNW 18:40:51 10° N
COSMO-SKYMED 1 2.5 18:31:40 10° NNE 18:36:01 83° ESE 18:40:20 10° S
FREGAT/IRIS 4.5 18:36:47 10° E 18:38:15 13° ENE 18:39:43 10° NE
Cosmos 1666 Rocket 3.8 18:34:39 10° SSE 18:38:48 47° E 18:43:00 10° NNE
FAST Rocket 4.2 18:37:52 10° SSE 18:40:29 42° E 18:43:01 10° NNE
SPOT 3 Rocket 4.4 18:38:28 10° S 18:43:29 54° W 18:48:32 10° NNW
Cosmos 1538 Rocket 4.0 18:38:24 10° SSW 18:43:40 88° ESE 18:49:02 10° NNE
BREEZE-M DEB (TANK) 4.2 18:39:41 10° NW 18:43:54 56° SW 18:52:32 10° SSE
SL-16 R/B 2.6 18:38:36 10° SSW 18:44:12 68° WNW 18:49:51 10° NNE
Cosmos 1484 Rocket 2.9 18:41:44 10° S 18:45:39 86° W 18:49:38 10° NNW
Cosmos 1340 Rocket 3.9 18:44:31 10° SSW 18:48:19 47° W 18:52:07 10° N
Meteor 1-27 4.4 18:43:20 10° N 18:49:11 84° W 18:55:01 10° S
Resurs 01 Rocket 3.2 18:49:47 14° ENE 18:49:53 14° ENE 18:52:14 10° NE
Meteor 2-10 4.2 18:45:24 10° N 18:50:35 80° W 18:55:55 10° S
Cosmos 923 Rocket 4.4 18:46:40 10° S 18:51:33 42° ESE 18:56:25 10° NNE
Meteor 1-28 Rocket 3.4 18:54:09 10° N 18:57:51 73° WNW 19:01:34 10° SSW
Cosmos 1680 Rocket 4.1 18:53:16 10° SSE 18:57:58 36° E 19:02:30 11° NE
Tiangong 1 0.9 18:55:38 10° WSW 18:58:36 82° NW 19:00:16 23° NE
Lacrosse 4 Rocket 2.7 18:58:51 10° NNE 19:01:45 19° ENE 19:01:45 19° ENE
Cosmos 2297 3.6 18:57:02 10° NNW 19:02:45 78° ENE 19:08:29 10° SSE
Helios 1B rocket 4.4 19:07:51 14° ESE 19:07:51 14° ESE 19:08:57 10° SE
Cosmos 1869 3.9 19:04:41 10° NNE 19:08:24 34° E 19:12:05 10° SSE
METEOR-M 4.1 19:04:41 10° SSE 19:09:56 60° ENE 19:15:12 10° N
FENGYUN 3A 4.4 19:05:23 10° SE 19:09:57 29° ENE 19:14:32 10° NNE
Cosmos 1470 Rocket 3.8 19:07:45 10° SSE 19:11:52 43° E 19:15:29 13° NNE
NOSS 3-1 (C) 3.7 19:12:17 10° S 19:17:30 40° ESE 19:20:20 25° ENE
OAO 1 Rocket 4.5 19:12:30 10° WNW 19:17:48 78° SSW 19:21:24 21° ESE
Cosmos 773 Rocket 4.4 19:12:57 10° SSW 19:18:03 65° WNW 19:23:14 10° N
NOAA 12 4.0 19:12:59 10° SSE 19:18:12 79° ENE 19:23:28 10° N
Cosmos 1626 3.9 19:17:49 10° SSW 19:21:14 33° W 19:24:39 10° NNW
Cosmos 1943 3.8 19:17:03 10° SSE 19:22:08 35° ESE 19:23:49 29° ENE
Cosmos 2242 Rocket 3.5 19:21:07 10° N 19:25:32 64° E 19:29:57 10° SSE
CCE 1 Rocket 4.4 19:23:48 10° SW 19:27:49 46° SSE 19:30:09 29° ESE
Sich 1 4.4 19:25:32 10° SSW 19:29:43 40° W 19:33:54 10° N
USA 215 3.9 19:28:14 28° ENE 19:30:23 35° NE 19:36:12 10° NNW
Coronas F rocket 3.6 19:30:46 10° SW 19:32:44 22° W 19:34:09 14° NW
Cosmos 2026 Rocket 4.0 19:27:29 10° SSE 19:33:30 53° E 19:39:27 10° NNE
Cosmos 2112 Rocket 3.9 19:29:16 10° S 19:34:25 73° ESE 19:37:37 24° NNE
Lacrosse 5 rocket 3.5 19:32:35 10° WNW 19:35:52 26° WSW 19:39:17 10° S
ALOS 2.2 19:33:31 10° SSE 19:38:05 57° ENE 19:42:39 10° N
Centaur AC-72 4.2 19:34:10 10° WSW 19:39:47 39° S 19:47:32 19° ESE
BREEZE M DEB (TANK) 4.3 19:42:26 10° NW 19:42:28 10° NW 19:42:28 10° NW
Delta 2 Rocket 3.4 19:44:08 10° WSW 19:46:48 54° WSW 19:46:48 54° WSW
Meteor 2-20 4.3 19:42:47 10° S 19:48:49 67° E 19:53:36 17° NNE
Cosmos 1455 4.0 19:45:37 10° NNW 19:49:03 32° W 19:52:29 10° SSW
Cosmos 1603 4.4 19:43:37 10° SW 19:49:04 53° WNW 19:54:02 13° N
FengYun 1-2 T 4.1 19:45:50 10° SSE 19:51:23 81° ENE 19:56:56 10° N
SJ-6B 4.3 19:53:18 10° SSW 19:57:06 38° W 20:00:58 10° NNW
Cosmos 1428 Rocket 4.3 19:59:08 10° S 20:04:55 65° ESE 20:04:55 65° ESE
Spot 2 Rocket 3.5 20:01:22 10° S 20:06:24 80° WSW 20:11:28 10° NNW
Milstar 3 4.3 20:06:48 10° W 20:12:21 28° SSW 20:17:17 15° SSE
Centaur AC-119 3.8 20:16:50 10° WSW 20:18:32 35° SW 20:18:32 35° SW
Resurs 01 Rocket 3.2 20:21:48 10° S 20:27:19 32° WNW 20:30:10 10° NNW
Cosmos 2369 Rocket 4.3 20:23:52 10° NNW 20:24:43 15° N 20:24:43 15° N
NOSS 3-1 (A) 3.5 20:24:36 10° SW 20:29:52 67° W 20:29:52 67° W
Intelsat 5-1 Rocket 4.4 20:28:14 10° SW 20:29:46 18° SSW 20:29:46 18° SSW
Lacrosse 4 Rocket 4.1 20:37:08 10° NW 20:38:14 16° WNW 20:38:14 16° WNW
USA 215 4.4 21:15:37 36° WNW 21:15:37 36° WNW 21:19:32 10° NW
